Regional Weather Roundup
Issued by NWS

Home | Current Version | Previous Version | Graphics & Text | Print | Product List | Glossary Off
Versions: 1 2 3 4 5 6 7 8 9 10 11 12 13 14 15 16 17 18 19 20 21 22 23 24 25 26 27 28 29 30 31 32 33 34 35 36 37 38 39 40 41 42 43 44 45 46 47 48 49 50

000
ASUS43 KTOP 292359
RWRKS

WEATHER ROUNDUP FOR KANSAS
NATIONAL WEATHER SERVICE GOODLAND KS
700 PM CDT TUE JUL 29 2014

NOTE:  "FAIR" INDICATES FEW OR NO CLOUDS BELOW 12,000 FEET WITH NO
SIGNIFICANT WEATHER AND/OR OBSTRUCTIONS TO VISIBILITY.

KSZ001>006-013>018-027>032-041>047-300100-
NORTHWEST KANSAS

CITY           SKY/WX    TMP DP  RH WIND       PRES   REMARKS
GOODLAND       CLOUDY    80  59  48 S16       30.10R
6HR MIN TEMP:  80; 6HR MAX TEMP:  87;

HAYS           PTSUNNY   84  59  42 E16       30.06S
HILL CITY      PTSUNNY   84  57  39 E16       30.07S
6HR MIN TEMP:  84; 6HR MAX TEMP:  90;

RUSSELL        MOSUNNY   85  59  41 E13       30.04F
6HR MIN TEMP:  83; 6HR MAX TEMP:  88;

$$

KSZ061>065-074>080-084>089-300100-
SOUTHWEST KANSAS

CITY           SKY/WX    TMP DP  RH WIND       PRES   REMARKS
DODGE CITY     MOSUNNY   76  59  55 S15       30.11S
6HR MIN TEMP:  76; 6HR MAX TEMP:  84;

ELKHART          N/A     78  64  61 S12         N/A
GARDEN CITY    MOSUNNY   76  62  62 S15       30.09S
6HR MIN TEMP:  76; 6HR MAX TEMP:  82;

GREAT BEND     MOSUNNY   84  63  48 S12       30.04S
LIBERAL        PTSUNNY   75  63  64 S13G20    30.10F
PRATT          SUNNY     81  55  41 SW12      30.09S
$$

KSZ066>073-081>083-090>101-300100-
SOUTHEAST KANSAS

CITY           SKY/WX    TMP DP  RH WIND       PRES   REMARKS
CHANUTE        PTSUNNY   76  58  53 NE5       30.09F
6HR MIN TEMP:  72; 6HR MAX TEMP:  77;

COFFEYVILLE    MOSUNNY   82  62  50 NE10      30.08F
6HR MIN TEMP:  79; 6HR MAX TEMP:  84;

HUTCHINSON     MOSUNNY   86  60  41 SE8       30.04F
6HR MIN TEMP:  84; 6HR MAX TEMP:  90;

NEWTON         SUNNY     84  57  39 E10       30.10F
PARSONS        MOSUNNY   79  62  56 VRB3      30.10F
6HR MIN TEMP:  77; 6HR MAX TEMP:  81;

WICHITA INTL   MOSUNNY   85  60  42 SE12G24   30.04F
6HR MIN TEMP:  84; 6HR MAX TEMP:  89;

WICHITA JABRA  MOSUNNY   85  63  47 E9        30.05F
6HR MIN TEMP:  84; 6HR MAX TEMP:  89;

WINFIELD       PTSUNNY   86  63  45 SE12      30.05F
6HR MIN TEMP:  86; 6HR MAX TEMP:  91;

$$

KSZ007>012-019>026-033>040-048>060-102>105-300100-
NORTHEAST KANSAS

CITY           SKY/WX    TMP DP  RH WIND       PRES   REMARKS
CONCORDIA      MOSUNNY   79  58  48 NE7       30.09F
6HR MIN TEMP:  74; 6HR MAX TEMP:  81;

EMPORIA        PTSUNNY   76  56  49 SE7       30.09F
6HR MIN TEMP:  71; 6HR MAX TEMP:  78; 6HR PCP: TRACE;

LAWRENCE       MOSUNNY   81  61  50 NE7       30.09F
6HR MIN TEMP:  79; 6HR MAX TEMP:  86;

MANHATTAN      MOSUNNY   82  57  42 NE5       30.08F
6HR MIN TEMP:  70; 6HR MAX TEMP:  84;

OLATHE IND     SUNNY     80  57  45 NE6       30.10F
6HR MIN TEMP:  78; 6HR MAX TEMP:  84;

OLATHE EXE     MOSUNNY   81  57  43 N8        30.09F
6HR MIN TEMP:  78; 6HR MAX TEMP:  84;

SALINA         MOSUNNY   83  56  39 E12       30.06F
6HR MIN TEMP:  81; 6HR MAX TEMP:  87;

TOPEKA BILLARD CLOUDY    82  58  43 E7        30.09F
6HR MIN TEMP:  78; 6HR MAX TEMP:  87;

TOPEKA FORBES  CLOUDY    81  56  42 CALM      30.09F
6HR MIN TEMP:  79; 6HR MAX TEMP:  85;

$$



USA.gov is the U.S. government's official web portal to all federal, state and local government web resources and services.